Showing default

XINGCHI-1 02B, 58498

Orbit data source: Space-Track

XINGCHI-1 02B, 58498 is a payload satellite owned by Tuoyuan Shikong (CN) in SSO that was launched on Mon, 04 Dec 2023 UTC via a CHANG ZHENG 2C launch vehicle from the Jiuquan Satellite Launch Center, China (JSC). Payload-class satellites include a variety of spacecraft equipped with specific instruments for various scientific and technological missions. These include communications satellites like Starlink; space stations such as the ISS; scientific satellites like the Hubble; Earth observation satellites from companies like Planet Labs, Umbra, and HawkEye 360; GPS; miniature CubeSats for education and research; and military/defense satellites.

Loading next visibility...
Identifier
58498, 2023-187C
Orbit
SSO
Country
Flag of CNCN / PRC
Related business
Manufacturer
Weina
Mission
Operational Commercial Imaging
Bus & Motor
MN35, Unknown motor
Mass
35 kg wet, 35 kg dry
Launch date (UTC)
2023-12-04 (3 years ago)
Launch vehicle
CHANG ZHENG 2C
Launch site
Jiuquan Satellite Launch Center, China (JSC)
Object type
Payload
Rocket body
Debris
Shape & HBR
Box + 2 Pan, 0.5 m
Radar Cross Section
0.195 m², Large (>1 m²)

Expand to show TLE details & history
Last TLE update: 15 hours ago

TLE from 15 hours ago
0 XINGCHI-1 02B
1 58498U 23187C   26172.52763361  .00001039  00000-0  12561-3 0  9997
2 58498  97.9296 256.5958 0011839 122.9889 237.2466 14.85823189137829
Epoch: 2026-06-21T12:39Z
TLE epoch observation values (Epoch: 2026-06-21T12:39:47.543Z)
Latitude
-0.00001°
Longitude
156.92109°
Altitude
618.516 km
Speed
7.547 km/s
True Right ascension
17h 06m 22s
True Declination
0° 00' 00"
Sunlit
Object was in full shadow at epoch
Visualization orbit readout
Latitude
Unknown
Longitude
Unknown
Altitude
Unknown
Speed
Unknown
Apparent Right ascension
Unknown
Apparent Declination
Unknown
Sunlit
N/A
Visualization observer readout
Local Sidereal Time
14:23:41
Azimuth
Unknown
Elevation
Unknown
Doppler factor
Unknown
Orbital elements
Apogee altitude
616.309 km
Perigee altitude
599.767 km
Semi-major axis
6,986.175 km
Eccentricity
0.00118
Inclination
97.9296°
RAAN
256.5958°
Arg. of periapsis
122.9889°
True anomaly
237.1326°
Mean anomaly
237.2466°
Eccentric anomaly
237.18959°
Mean motion
3.71693 °/min
Orbital period
96.85 mins
BSTAR
0.00012561
Loading maneuver chart data...
Computing Atmospheric mass density...
Loading historical data...
Loading historical data...
Loading historical data...
Loading historical data...
Loading historical data...
Loading historical data...
Loading historical data...
Other satellites on launch #187 in the year 2023 (2023-12-04 UTC)

Documentation

Showing up to 5 results
|